Location: Ceske Budejovice
(48.9830°N, 14.4670°E)
Time: 19:59:16
(UTC+02:00)

DX 1 - Pass Details

Date: 25 August 2019
Orbit: 619 x 631 km, 98.4° (Epoch: 14 October)

Event Time Altitude Azimuth Distance (km) Brightness Sun altitude
Exits shadow 04:37:10 -1° 172° (S) 2,947 ? -14.1°
Rises 04:37:19 0° 172° (S) 2,884 ? -14.1°
Reaches altitude 10° 04:39:30 10° 175° (S) 1,983 ? -13.8°
Maximum altitude 04:43:47 64° 257° (WSW) 691 ? -13.2°
Drops below altitude 10° 04:48:07 10° 340° (NNW) 2,005 ? -12.6°
Sets 04:50:21 0° 343° (NNW) 2,918 ? -12.3°
